Home   Weather   Glacier National Park   Past weeks
Flag for USA

Past Weather in Glacier National Park, Montana, USA — Yesterday and Last 2 Weeks

Now
68 °F

Partly sunny.


Feels Like: 68 °F
Forecast: 72 / 53 °F
Wind: 18 mph from South

Location: Kalispell - Glacier Park International

Current Time: Jul 18, 2019 at 11:53:50 am

Latest Report: Jul 18, 2019 at 10:55 am


Visibility: 10 mi

Pressure: 29.71 "Hg

Humidity: 47%

Dew Point: 47 °F

Location of Glacier National ParkLocation

Past Weather in Glacier National Park — Graph

°F

Glacier National Park Temperature Yesterday

Maximum temperature yesterday: 70 °F (at 1:55 pm)
Minimum temperature yesterday: 49 °F (at 1:58 am)
Average temperature yesterday: 57 °F

High & Low Weather Summary for the Past Weeks

 TemperatureHumidityPressure
High85 °F (Jul 13, 6:55 pm)97% (Jul 4, 12:55 am)30.14 "Hg (Jul 4, 12:55 am)
Low44 °F (Jul 4, 5:02 am)21% (Jul 14, 6:55 pm)29.71 "Hg (Jul 18, 9:55 am)
Average64 °F67%29.95 "Hg
* Reported Jul 3 9:33 am — Jul 18 9:55 am, Glacier National Park. Weather by CustomWeather, © 2019

Note: Actual official high and low records may vary slightly from our data, if they occured in-between our weather recording intervals... More about our weather records

Advertising

Glacier National Park Weather History for the Previous 24 Hours

Scroll right to see more
 ConditionsComfort  
Time TempWeatherWind HumidityBarometerVisibility
9:55 am
Thu, Jul 18
67 °FMostly cloudy.17 mph45%29.71 "Hg10 mi
8:55 am65 °FOvercast.8 mph56%29.73 "Hg10 mi
7:55 am64 °FMore clouds than sun.13 mph58%29.73 "Hg10 mi
6:55 am60 °FMostly cloudy.10 mph72%29.74 "Hg10 mi
5:55 am57 °FPartly sunny.5 mph81%29.75 "Hg10 mi
4:55 am57 °FOvercast.7 mph78%29.75 "Hg10 mi
3:55 am58 °FPassing clouds.8 mph72%29.75 "Hg10 mi
2:55 am53 °FPassing clouds.5 mph83%29.77 "Hg10 mi
1:55 am54 °FPassing clouds.3 mph77%29.79 "Hg10 mi
12:55 am57 °FPassing clouds.3 mph69%29.79 "Hg10 mi
11:55 pm
Wed, Jul 17
59 °FOvercast.3 mph67%29.80 "Hg10 mi
10:55 pm61 °FOvercast.5 mph62%29.81 "Hg10 mi
9:55 pm63 °FOvercast.7 mph56%29.83 "Hg10 mi
8:55 pm63 °FMore clouds than sun.6 mph63%29.83 "Hg10 mi
7:55 pm62 °FOvercast.7 mph67%29.82 "Hg10 mi
6:55 pm63 °FOvercast.10 mph65%29.82 "Hg10 mi
5:55 pm63 °FOvercast.8 mph68%29.83 "Hg10 mi
4:55 pm63 °FMore clouds than sun.6 mph68%29.84 "Hg10 mi
3:55 pm63 °FMostly cloudy.3 mph73%29.84 "Hg10 mi
2:55 pm69 °FMore clouds than sun.13 mph45%29.82 "Hg10 mi
1:55 pm70 °FBroken clouds.6 mph55%29.83 "Hg10 mi
12:55 pm67 °FBroken clouds.8 mph61%29.84 "Hg10 mi
11:55 am67 °FScattered clouds.12 mph66%29.84 "Hg10 mi
Weather by CustomWeather, © 2019

See weather overview